Location: Zagreb
(45.8000°N, 16.0000°E)
Time: 19:53:53
(UTC+02:00)

A-11 Canister half - Pass Details

Date: 17 August 2022
Orbit: 1524 x 1684 km, 47.3° (Epoch: 05 October)

Event Time Altitude Azimuth Distance (km) Brightness Sun altitude
Rises 08:33:34 0° 279° (W) 4,933 11.1 25.8°
Reaches altitude 10° 08:36:44 10° 280° (W) 3,949 10.7 26.3°
Maximum altitude 08:46:59 86° 10° (N) 1,686 9.7 28.1°
Drops below altitude 10° 08:57:05 10° 101° (E) 3,897 12.8 29.8°
Sets 09:00:11 0° 102° (ESE) 4,866 12.8 30.3°
